Погода в Баруне

Россия / Республика Калмыкия     47°33′27″N   45°48′53″E
темп.,
°C
ветер,
м/с
пор.,
м/с
влажн.,
%
обл.,
%
осадки,
мм/ч
давл.,
гПа
погр.,
м
12 мая, ср
ср1200:00+11в49551 0.0 1019208
03:00+10всв411615 0.0 1018236
06:00+12всв59670 0.0 1018235
09:00+17в44450 0.0 1018732
12:00+21в34360 0.0 10181682
15:00+23в44342 0.0 10171944
18:00+22вюв453918 0.0 1017700
21:00+19ссв4551100 0.0 101689
13 мая, чт
чт1300:00+18ссв49550 0.0 1015234
03:00+15св33725 0.0 101445
06:00+16ю36690 0.0 1015184
09:00+21ююв33510 0.0 1015716
12:00+25юв44350 0.0 10161150
15:00+28юв44320 0.0 10151352
18:00+28в23380 0.0 1015136
21:00+22юв510530 0.0 1016234
14 мая, пт
пт1400:00+19юв59630 0.0 1016223
03:00+17юв48675 0.0 1016153
06:00+19юв38625 0.0 1017200
09:00+27вюв693456 0.0 1017627
12:00+31юв8923100 0.0 10161386
15:00+32юв1012191 0.0 10162045
18:00+28юв914200 0.0 1016668
21:00+23юв817235 0.0 1017455
15 мая, сб
сб1500:00+20вюв514324 0.0 1017246
03:00+18вюв512395 0.0 1016200
06:00+19вюв512425 0.0 1016239
09:00+28юв913240 0.0 1016874
12:00+32юв1112170 0.0 10162453
15:00+32юв1011160 0.0 10152692
18:00+29юв812225 0.0 1015513
21:00+23ююв513325 0.0 1016227
16 мая, вс
вс1600:00+21юв510410 0.0 1015165
03:00+19вюв45394 0.0 101556
06:00+20в49474 0.0 1014236
09:00+29юв810285 0.0 1014697
12:00+33юв1011175 0.0 10133128
15:00+33юв1011182 0.0 10113210
18:00+29вюв913210 0.0 1011751
21:00+23вюв614220 0.0 1012282